Location: Cañada de la Miga
(34.7595°N, 106.2317°W)
Time: 07:00:12
(UTC+00:00)

Transit 4A - Pass Details

Date: 03 December 2021
Orbit: 864 x 980 km, 66.8° (Epoch: 16 January)

Event Time Altitude Azimuth Distance (km) Brightness Sun altitude
Rises 00:52:40 0° 163° (SSE) 3,431 10.9 -12.0°
Reaches altitude 10° 00:55:53 10° 145° (SE) 2,508 10.0 -12.6°
Maximum altitude 00:59:40 18° 104° (ESE) 2,011 9.2 -13.4°
Enters shadow 01:00:45 17° 90° (E) 2,065 9.1 -13.6°
Drops below altitude 10° 01:03:30 10° 63° (ENE) 2,553 - -14.1°
Sets 01:06:48 0° 45° (NE) 3,518 - -14.8°
